{"data":{"norad_id":67961,"epoch":"2026-09-19T14:48:04.901760Z","epoch_age_seconds":139676,"freshness":"FRESH","line1":"1 67961U 26038A   26262.61672340  .00018702  00000+0  57997-3 0  9992","line2":"2 67961  97.2854 270.9023 0001022 101.3905 258.7453 15.33457005 32959","mean_motion":15.33457005,"eccentricity":0.0001022,"inclination_deg":97.2854,"raan_deg":270.9023,"arg_perigee_deg":101.3905,"mean_anomaly_deg":258.7453,"bstar":0.00057997,"rev_number":3295,"period_min":93.905469491791,"perigee_km":464.80803581396,"apogee_km":466.20687674082,"semimajor_km":6843.6444562774,"source":"CELESTRAK","updated_at":"2026-09-20T09:00:43.713171Z"}}